Time,TemperatureF,DewpointF,PressureIn,WindDirection,WindDirectionDegrees,WindSpeedMPH,WindSpeedGustMPH,Humidity,HourlyPrecipIn,Conditions,Clouds,dailyrainin,SoftwareType,DateUTC
2013-09-15 00:02:00,51.2,48.7,0.00,WSW,250,0.6,2.8,91,0.00,,,0.00,WUHU216CR1000,2013-09-15 07:02:00,
2013-09-15 00:07:00,51.2,48.7,0.00,WSW,250,0.6,2.8,91,0.00,,,0.00,WUHU216CR1000,2013-09-15 07:07:00,
2013-09-15 00:12:00,51.2,48.7,0.00,WSW,250,0.6,2.8,91,0.00,,,0.00,WUHU216CR1000,2013-09-15 07:12:00,
2013-09-15 00:17:00,50.4,48.0,0.00,North,0,0.0,2.8,91,0.00,,,0.00,WUHU216CR1000,2013-09-15 07:17:00,
2013-09-15 00:22:00,50.4,48.0,0.00,North,0,0.0,0.0,91,0.00,,,0.00,WUHU216CR1000,2013-09-15 07:22:00,
2013-09-15 00:27:00,50.4,48.0,0.00,North,0,0.0,0.0,91,0.00,,,0.00,WUHU216CR1000,2013-09-15 07:27:00,
2013-09-15 00:32:00,50.3,48.0,0.00,NW,304,0.3,2.8,92,0.00,,,0.00,WUHU216CR1000,2013-09-15 07:32:00,
2013-09-15 00:37:00,50.3,48.0,0.00,NW,304,0.3,2.8,92,0.00,,,0.00,WUHU216CR1000,2013-09-15 07:37:00,
2013-09-15 00:42:00,50.3,48.0,0.00,NW,304,0.3,2.8,92,0.00,,,0.00,WUHU216CR1000,2013-09-15 07:42:00,
2013-09-15 00:47:00,50.0,48.0,0.00,NNW,328,1.2,2.8,93,0.00,,,0.00,WUHU216CR1000,2013-09-15 07:47:00,
2013-09-15 00:52:00,50.0,48.0,0.00,NNW,328,1.2,2.8,93,0.00,,,0.00,WUHU216CR1000,2013-09-15 07:52:00,
2013-09-15 00:57:00,50.0,48.0,0.00,NNW,328,1.2,2.8,93,0.00,,,0.00,WUHU216CR1000,2013-09-15 07:57:00,
2013-09-15 01:02:00,49.8,47.8,0.00,WNW,282,0.7,2.8,93,0.00,,,0.00,WUHU216CR1000,2013-09-15 08:02:00,
2013-09-15 01:07:00,49.8,47.8,0.00,WNW,282,0.7,2.8,93,0.00,,,0.00,WUHU216CR1000,2013-09-15 08:07:00,
2013-09-15 01:12:00,49.8,47.8,0.00,WNW,282,0.7,2.8,93,0.00,,,0.00,WUHU216CR1000,2013-09-15 08:12:00,
2013-09-15 01:17:00,48.9,46.8,0.00,WNW,289,0.1,2.8,92,0.00,,,0.00,WUHU216CR1000,2013-09-15 08:17:00,
2013-09-15 01:22:00,48.9,46.8,0.00,WNW,289,0.1,2.8,92,0.00,,,0.00,WUHU216CR1000,2013-09-15 08:22:00,
2013-09-15 01:27:00,48.9,46.8,0.00,WNW,289,0.1,2.8,92,0.00,,,0.00,WUHU216CR1000,2013-09-15 08:27:00,
2013-09-15 01:32:00,48.5,46.7,0.00,NW,321,0.7,2.8,93,0.00,,,0.00,WUHU216CR1000,2013-09-15 08:32:00,
2013-09-15 01:37:00,48.5,46.7,0.00,NW,321,0.7,2.8,93,0.00,,,0.00,WUHU216CR1000,2013-09-15 08:37:00,
2013-09-15 01:42:00,48.5,46.7,0.00,NW,321,0.7,2.8,93,0.00,,,0.00,WUHU216CR1000,2013-09-15 08:42:00,
2013-09-15 01:47:00,48.8,47.1,0.00,NW,309,0.2,2.8,94,0.00,,,0.00,WUHU216CR1000,2013-09-15 08:47:00,
2013-09-15 01:52:00,48.8,47.1,0.00,NW,309,0.2,2.8,94,0.00,,,0.00,WUHU216CR1000,2013-09-15 08:52:00,
2013-09-15 01:57:00,48.8,47.1,0.00,NW,309,0.2,2.8,94,0.00,,,0.00,WUHU216CR1000,2013-09-15 08:57:00,
2013-09-15 02:02:00,48.3,46.6,0.00,NW,323,0.9,2.8,94,0.00,,,0.00,WUHU216CR1000,2013-09-15 09:02:00,
2013-09-15 02:07:00,48.3,46.6,0.00,NW,323,0.9,2.8,94,0.00,,,0.00,WUHU216CR1000,2013-09-15 09:07:00,
2013-09-15 02:12:00,48.3,46.6,0.00,NW,323,0.9,2.8,94,0.00,,,0.00,WUHU216CR1000,2013-09-15 09:12:00,
2013-09-15 02:17:00,47.7,45.9,0.00,NW,320,0.1,2.8,94,0.00,,,0.00,WUHU216CR1000,2013-09-15 09:17:00,
2013-09-15 02:22:00,47.7,45.9,0.00,NW,320,0.1,2.8,94,0.00,,,0.00,WUHU216CR1000,2013-09-15 09:22:00,
2013-09-15 02:27:00,47.7,45.9,0.00,NW,320,0.1,2.8,94,0.00,,,0.00,WUHU216CR1000,2013-09-15 09:27:00,
2013-09-15 02:32:00,47.0,45.4,0.00,WNW,302,0.3,2.8,94,0.00,,,0.00,WUHU216CR1000,2013-09-15 09:32:00,
2013-09-15 02:37:00,47.0,45.4,0.00,WNW,302,0.3,2.8,94,0.00,,,0.00,WUHU216CR1000,2013-09-15 09:37:00,
2013-09-15 02:42:00,47.0,45.4,0.00,WNW,302,0.3,2.8,94,0.00,,,0.00,WUHU216CR1000,2013-09-15 09:42:00,
2013-09-15 02:47:00,47.0,45.4,0.00,WNW,303,0.7,2.8,94,0.00,,,0.00,WUHU216CR1000,2013-09-15 09:47:00,
2013-09-15 02:52:00,47.0,45.4,0.00,WNW,303,0.7,2.8,94,0.00,,,0.00,WUHU216CR1000,2013-09-15 09:52:00,
2013-09-15 02:57:00,47.0,45.4,0.00,WNW,303,0.7,2.8,94,0.00,,,0.00,WUHU216CR1000,2013-09-15 09:57:00,
2013-09-15 03:02:00,47.1,45.7,0.00,WNW,299,1.5,4.6,95,0.00,,,0.00,WUHU216CR1000,2013-09-15 10:02:00,
2013-09-15 03:07:00,47.1,45.7,0.00,WNW,299,1.5,4.6,95,0.00,,,0.00,WUHU216CR1000,2013-09-15 10:07:00,
2013-09-15 03:12:00,47.1,45.7,0.00,WNW,299,1.5,4.6,95,0.00,,,0.00,WUHU216CR1000,2013-09-15 10:12:00,
2013-09-15 03:17:00,48.7,47.6,0.00,NNW,337,1.9,4.6,96,0.00,,,0.00,WUHU216CR1000,2013-09-15 10:17:00,
2013-09-15 03:22:00,48.7,47.6,0.00,NNW,337,1.9,4.6,96,0.00,,,0.00,WUHU216CR1000,2013-09-15 10:22:00,
2013-09-15 03:27:00,48.7,47.6,0.00,NNW,337,1.9,4.6,96,0.00,,,0.00,WUHU216CR1000,2013-09-15 10:27:00,
2013-09-15 03:32:00,48.8,47.5,0.00,NNW,327,1.4,4.6,95,0.00,,,0.00,WUHU216CR1000,2013-09-15 10:32:00,
2013-09-15 03:37:00,48.8,47.5,0.00,NNW,327,1.4,4.6,95,0.00,,,0.00,WUHU216CR1000,2013-09-15 10:37:00,
2013-09-15 03:42:00,48.8,47.5,0.00,NNW,327,1.4,4.6,95,0.00,,,0.00,WUHU216CR1000,2013-09-15 10:42:00,
2013-09-15 03:47:00,48.6,47.2,0.00,SW,233,0.8,4.6,95,0.00,,,0.00,WUHU216CR1000,2013-09-15 10:47:00,
2013-09-15 03:52:00,48.6,47.2,0.00,SW,233,0.8,4.6,95,0.00,,,0.00,WUHU216CR1000,2013-09-15 10:52:00,
2013-09-15 03:57:00,48.6,47.2,0.00,SW,233,0.8,4.6,95,0.00,,,0.00,WUHU216CR1000,2013-09-15 10:57:00,
2013-09-15 04:02:00,49.0,47.7,0.00,ENE,65,0.3,4.6,95,0.00,,,0.00,WUHU216CR1000,2013-09-15 11:02:00,
2013-09-15 04:07:00,49.0,47.7,0.00,ENE,65,0.3,2.8,95,0.00,,,0.00,WUHU216CR1000,2013-09-15 11:07:00,
2013-09-15 04:12:00,49.0,47.7,0.00,ENE,65,0.3,2.8,95,0.00,,,0.00,WUHU216CR1000,2013-09-15 11:12:00,
2013-09-15 04:17:00,48.8,47.5,0.00,North,351,1.8,4.6,95,0.00,,,0.00,WUHU216CR1000,2013-09-15 11:17:00,
2013-09-15 04:22:00,48.8,47.5,0.00,North,351,1.8,4.6,95,0.00,,,0.00,WUHU216CR1000,2013-09-15 11:22:00,
2013-09-15 04:27:00,48.8,47.5,0.00,North,351,1.8,4.6,95,0.00,,,0.00,WUHU216CR1000,2013-09-15 11:27:00,
2013-09-15 04:32:00,49.2,48.1,0.00,WNW,295,1.4,4.6,96,0.00,,,0.00,WUHU216CR1000,2013-09-15 11:32:00,
2013-09-15 04:37:00,49.2,48.1,0.00,WNW,295,1.4,4.6,96,0.00,,,0.00,WUHU216CR1000,2013-09-15 11:37:00,
2013-09-15 04:42:00,49.2,48.1,0.00,WNW,295,1.4,4.6,96,0.00,,,0.00,WUHU216CR1000,2013-09-15 11:42:00,
2013-09-15 04:47:00,50.5,49.4,0.00,NW,319,0.2,4.6,96,0.00,,,0.00,WUHU216CR1000,2013-09-15 11:47:00,
2013-09-15 04:52:00,50.5,49.4,0.00,NW,319,0.2,2.8,96,0.00,,,0.00,WUHU216CR1000,2013-09-15 11:52:00,
2013-09-15 04:57:00,50.5,49.4,0.00,NW,319,0.2,2.8,96,0.00,,,0.00,WUHU216CR1000,2013-09-15 11:57:00,
2013-09-15 05:02:00,51.5,50.3,0.00,SSW,205,0.2,2.8,96,0.00,,,0.00,WUHU216CR1000,2013-09-15 12:02:00,
2013-09-15 05:07:00,51.5,50.3,0.00,SSW,205,0.2,2.8,96,0.00,,,0.00,WUHU216CR1000,2013-09-15 12:07:00,
2013-09-15 05:12:00,51.5,50.3,0.00,SSW,205,0.2,2.8,96,0.00,,,0.00,WUHU216CR1000,2013-09-15 12:12:00,
2013-09-15 05:17:00,52.0,50.8,0.00,ENE,63,0.1,2.8,96,0.00,,,0.00,WUHU216CR1000,2013-09-15 12:17:00,
2013-09-15 05:22:00,52.0,50.8,0.00,ENE,63,0.1,2.8,96,0.00,,,0.00,WUHU216CR1000,2013-09-15 12:22:00,
2013-09-15 05:27:00,52.0,50.8,0.00,ENE,63,0.1,2.8,96,0.00,,,0.00,WUHU216CR1000,2013-09-15 12:27:00,
2013-09-15 05:32:00,51.6,50.4,0.00,WSW,253,1.6,4.6,96,0.00,,,0.00,WUHU216CR1000,2013-09-15 12:32:00,
2013-09-15 05:37:00,51.6,50.4,0.00,WSW,253,1.6,4.6,96,0.00,,,0.00,WUHU216CR1000,2013-09-15 12:37:00,
2013-09-15 05:42:00,51.6,50.4,0.00,WSW,253,1.6,4.6,96,0.00,,,0.00,WUHU216CR1000,2013-09-15 12:42:00,
2013-09-15 05:47:00,51.8,50.6,0.00,NW,316,0.9,4.6,96,0.00,,,0.00,WUHU216CR1000,2013-09-15 12:47:00,
2013-09-15 05:52:00,51.8,50.6,0.00,NW,316,0.9,4.6,96,0.00,,,0.00,WUHU216CR1000,2013-09-15 12:52:00,
2013-09-15 05:57:00,51.8,50.6,0.00,NW,316,0.9,4.6,96,0.00,,,0.00,WUHU216CR1000,2013-09-15 12:57:00,
2013-09-15 06:02:00,51.3,50.1,0.00,West,272,1.6,6.4,96,0.00,,,0.00,WUHU216CR1000,2013-09-15 13:02:00,
2013-09-15 06:07:00,51.3,50.1,0.00,West,272,1.6,6.4,96,0.00,,,0.00,WUHU216CR1000,2013-09-15 13:07:00,
2013-09-15 06:12:00,51.3,50.1,0.00,West,272,1.6,6.4,96,0.00,,,0.00,WUHU216CR1000,2013-09-15 13:12:00,
2013-09-15 06:17:00,51.0,49.9,0.00,South,188,0.7,6.4,96,0.00,,,0.00,WUHU216CR1000,2013-09-15 13:17:00,
2013-09-15 06:22:00,51.0,49.9,0.00,South,188,0.7,4.6,96,0.00,,,0.00,WUHU216CR1000,2013-09-15 13:22:00,
2013-09-15 06:27:00,51.0,49.9,0.00,South,188,0.7,4.6,96,0.00,,,0.00,WUHU216CR1000,2013-09-15 13:27:00,
2013-09-15 06:32:00,51.7,50.7,0.00,South,182,1.9,6.4,96,0.00,,,0.00,WUHU216CR1000,2013-09-15 13:32:00,
2013-09-15 06:37:00,51.7,50.7,0.00,South,182,1.9,6.4,96,0.00,,,0.00,WUHU216CR1000,2013-09-15 13:37:00,
2013-09-15 06:42:00,51.7,50.7,0.00,South,182,1.9,6.4,96,0.00,,,0.00,WUHU216CR1000,2013-09-15 13:42:00,
2013-09-15 06:47:00,52.3,51.2,0.00,SSW,208,1.9,6.4,96,0.00,,,0.00,WUHU216CR1000,2013-09-15 13:47:00,
2013-09-15 06:52:00,52.3,51.2,0.00,SSW,208,1.9,4.6,96,0.00,,,0.00,WUHU216CR1000,2013-09-15 13:52:00,
2013-09-15 06:57:00,52.3,51.2,0.00,SSW,208,1.9,4.6,96,0.00,,,0.00,WUHU216CR1000,2013-09-15 13:57:00,
2013-09-15 07:02:00,51.9,50.7,0.00,WSW,249,0.1,4.6,96,0.00,,,0.00,WUHU216CR1000,2013-09-15 14:02:00,
2013-09-15 07:07:00,51.9,50.7,0.00,WSW,249,0.1,2.8,96,0.00,,,0.00,WUHU216CR1000,2013-09-15 14:07:00,
2013-09-15 07:12:00,51.9,50.7,0.00,WSW,249,0.1,2.8,96,0.00,,,0.00,WUHU216CR1000,2013-09-15 14:12:00,
2013-09-15 07:17:00,51.8,50.6,0.00,WSW,256,1.4,6.4,96,0.00,,,0.00,WUHU216CR1000,2013-09-15 14:17:00,
2013-09-15 07:22:00,51.8,50.6,0.00,WSW,256,1.4,6.4,96,0.00,,,0.00,WUHU216CR1000,2013-09-15 14:22:00,
2013-09-15 07:27:00,51.8,50.6,0.00,WSW,256,1.4,6.4,96,0.00,,,0.00,WUHU216CR1000,2013-09-15 14:27:00,
2013-09-15 07:32:00,52.5,51.3,0.00,WSW,238,2.0,6.4,96,0.00,,,0.00,WUHU216CR1000,2013-09-15 14:32:00,
2013-09-15 07:37:00,52.5,51.3,0.00,WSW,238,2.0,4.6,96,0.00,,,0.00,WUHU216CR1000,2013-09-15 14:37:00,
2013-09-15 07:42:00,52.5,51.3,0.00,WSW,238,2.0,4.6,96,0.00,,,0.00,WUHU216CR1000,2013-09-15 14:42:00,
2013-09-15 07:47:00,53.3,52.1,0.00,SSE,165,0.3,4.6,96,0.00,,,0.00,WUHU216CR1000,2013-09-15 14:47:00,
2013-09-15 07:52:00,53.3,52.1,0.00,SSE,165,0.3,2.8,96,0.00,,,0.00,WUHU216CR1000,2013-09-15 14:52:00,
2013-09-15 07:57:00,53.3,52.1,0.00,SSE,165,0.3,2.8,96,0.00,,,0.00,WUHU216CR1000,2013-09-15 14:57:00,
2013-09-15 08:02:00,54.0,52.6,0.00,SSE,166,1.4,4.6,95,0.00,,,0.00,WUHU216CR1000,2013-09-15 15:02:00,
2013-09-15 08:07:00,54.0,52.6,0.00,SSE,166,1.4,4.6,95,0.00,,,0.00,WUHU216CR1000,2013-09-15 15:07:00,
2013-09-15 08:12:00,54.0,52.6,0.00,SSE,166,1.4,4.6,95,0.00,,,0.00,WUHU216CR1000,2013-09-15 15:12:00,
2013-09-15 08:17:00,54.6,52.8,0.00,SE,135,1.2,4.6,94,0.00,,,0.00,WUHU216CR1000,2013-09-15 15:17:00,
2013-09-15 08:22:00,54.6,52.8,0.00,SE,135,1.2,4.6,94,0.00,,,0.00,WUHU216CR1000,2013-09-15 15:22:00,
2013-09-15 08:27:00,54.6,52.8,0.00,SE,135,1.2,4.6,94,0.00,,,0.00,WUHU216CR1000,2013-09-15 15:27:00,
2013-09-15 08:32:00,55.4,53.0,0.00,SW,224,0.8,4.6,92,0.00,,,0.00,WUHU216CR1000,2013-09-15 15:32:00,
2013-09-15 08:37:00,55.4,53.0,0.00,SW,224,0.8,4.6,92,0.00,,,0.00,WUHU216CR1000,2013-09-15 15:37:00,
2013-09-15 08:42:00,55.4,53.0,0.00,SW,224,0.8,4.6,92,0.00,,,0.00,WUHU216CR1000,2013-09-15 15:42:00,
2013-09-15 08:47:00,57.0,53.5,0.00,SSW,204,1.7,4.6,88,0.00,,,0.00,WUHU216CR1000,2013-09-15 15:47:00,
2013-09-15 08:52:00,57.0,53.5,0.00,SSW,204,1.7,4.6,88,0.00,,,0.00,WUHU216CR1000,2013-09-15 15:52:00,
2013-09-15 08:57:00,57.0,53.5,0.00,SSW,204,1.7,4.6,88,0.00,,,0.00,WUHU216CR1000,2013-09-15 15:57:00,
2013-09-15 09:02:00,59.0,53.7,0.00,ESE,118,1.1,4.6,82,0.00,,,0.00,WUHU216CR1000,2013-09-15 16:02:00,
2013-09-15 09:07:00,59.0,53.7,0.00,ESE,118,1.1,4.6,82,0.00,,,0.00,WUHU216CR1000,2013-09-15 16:07:00,
2013-09-15 09:12:00,59.0,53.7,0.00,ESE,118,1.1,4.6,82,0.00,,,0.00,WUHU216CR1000,2013-09-15 16:12:00,
2013-09-15 09:17:00,60.9,53.7,0.00,South,180,1.9,4.6,77,0.00,,,0.00,WUHU216CR1000,2013-09-15 16:17:00,
2013-09-15 09:22:00,60.9,53.7,0.00,South,180,1.9,4.6,77,0.00,,,0.00,WUHU216CR1000,2013-09-15 16:22:00,
2013-09-15 09:27:00,60.9,53.7,0.00,South,180,1.9,4.6,77,0.00,,,0.00,WUHU216CR1000,2013-09-15 16:27:00,
2013-09-15 09:32:00,61.7,53.7,0.00,South,177,3.2,6.4,75,0.00,,,0.00,WUHU216CR1000,2013-09-15 16:32:00,
2013-09-15 09:37:00,61.7,53.7,0.00,South,177,3.2,6.4,75,0.00,,,0.00,WUHU216CR1000,2013-09-15 16:37:00,
2013-09-15 09:42:00,61.7,53.7,0.00,South,177,3.2,6.4,75,0.00,,,0.00,WUHU216CR1000,2013-09-15 16:42:00,
2013-09-15 09:47:00,62.0,53.8,0.00,South,169,3.7,8.2,75,0.00,,,0.00,WUHU216CR1000,2013-09-15 16:47:00,
2013-09-15 09:52:00,62.0,53.8,0.00,South,169,3.7,8.2,75,0.00,,,0.00,WUHU216CR1000,2013-09-15 16:52:00,
2013-09-15 09:57:00,62.0,53.8,0.00,South,169,3.7,8.2,75,0.00,,,0.00,WUHU216CR1000,2013-09-15 16:57:00,
2013-09-15 10:02:00,63.3,54.0,0.00,SE,128,3.0,8.2,72,0.00,,,0.00,WUHU216CR1000,2013-09-15 17:02:00,
2013-09-15 10:07:00,63.3,54.0,0.00,SE,128,3.0,6.4,72,0.00,,,0.00,WUHU216CR1000,2013-09-15 17:07:00,
2013-09-15 10:12:00,63.3,54.0,0.00,SE,128,3.0,6.4,72,0.00,,,0.00,WUHU216CR1000,2013-09-15 17:12:00,
2013-09-15 10:17:00,63.9,53.9,0.00,SW,229,2.8,6.4,70,0.00,,,0.00,WUHU216CR1000,2013-09-15 17:17:00,
2013-09-15 10:22:00,63.9,53.9,0.00,SW,229,2.8,4.6,70,0.00,,,0.00,WUHU216CR1000,2013-09-15 17:22:00,
2013-09-15 10:27:00,63.9,53.9,0.00,SW,229,2.8,4.6,70,0.00,,,0.00,WUHU216CR1000,2013-09-15 17:27:00,
2013-09-15 10:32:00,65.7,54.3,0.00,WSW,239,2.7,6.4,67,0.00,,,0.00,WUHU216CR1000,2013-09-15 17:32:00,
2013-09-15 10:37:00,65.7,54.3,0.00,WSW,239,2.7,6.4,67,0.00,,,0.00,WUHU216CR1000,2013-09-15 17:37:00,
2013-09-15 10:42:00,65.7,54.3,0.00,WSW,239,2.7,6.4,67,0.00,,,0.00,WUHU216CR1000,2013-09-15 17:42:00,
2013-09-15 10:47:00,68.0,54.6,0.00,NE,49,3.0,8.2,62,0.00,,,0.00,WUHU216CR1000,2013-09-15 17:47:00,
2013-09-15 10:52:00,68.0,54.6,0.00,NE,49,3.0,8.2,62,0.00,,,0.00,WUHU216CR1000,2013-09-15 17:52:00,
2013-09-15 10:57:00,68.0,54.6,0.00,NE,49,3.0,8.2,62,0.00,,,0.00,WUHU216CR1000,2013-09-15 17:57:00,
2013-09-15 11:02:00,69.5,54.7,0.00,ENE,63,3.8,8.2,59,0.00,,,0.00,WUHU216CR1000,2013-09-15 18:02:00,
2013-09-15 11:07:00,69.5,54.7,0.00,ENE,63,3.8,6.4,59,0.00,,,0.00,WUHU216CR1000,2013-09-15 18:07:00,
2013-09-15 11:12:00,69.5,54.7,0.00,ENE,63,3.8,6.4,59,0.00,,,0.00,WUHU216CR1000,2013-09-15 18:12:00,
2013-09-15 11:17:00,71.3,54.8,0.00,ESE,107,3.2,6.4,56,0.00,,,0.00,WUHU216CR1000,2013-09-15 18:17:00,
2013-09-15 11:22:00,71.3,54.8,0.00,ESE,107,3.2,6.4,56,0.00,,,0.00,WUHU216CR1000,2013-09-15 18:22:00,
2013-09-15 11:27:00,71.3,54.8,0.00,ESE,107,3.2,6.4,56,0.00,,,0.00,WUHU216CR1000,2013-09-15 18:27:00,
2013-09-15 11:32:00,74.4,54.2,0.00,North,4,2.4,6.4,50,0.00,,,0.00,WUHU216CR1000,2013-09-15 18:32:00,
2013-09-15 11:37:00,74.4,54.2,0.00,North,4,2.4,6.4,50,0.00,,,0.00,WUHU216CR1000,2013-09-15 18:37:00,
2013-09-15 11:42:00,74.4,54.2,0.00,North,4,2.4,6.4,50,0.00,,,0.00,WUHU216CR1000,2013-09-15 18:42:00,
2013-09-15 11:47:00,75.8,53.2,0.00,NNW,343,3.8,9.9,45,0.00,,,0.00,WUHU216CR1000,2013-09-15 18:47:00,
2013-09-15 11:52:00,75.8,53.2,0.00,NNW,343,3.8,9.9,45,0.00,,,0.00,WUHU216CR1000,2013-09-15 18:52:00,
2013-09-15 11:57:00,75.8,53.2,0.00,NNW,343,3.8,9.9,45,0.00,,,0.00,WUHU216CR1000,2013-09-15 18:57:00,
2013-09-15 12:02:00,77.3,52.6,0.00,NNW,340,3.3,9.9,42,0.00,,,0.00,WUHU216CR1000,2013-09-15 19:02:00,
2013-09-15 12:07:00,77.3,52.6,0.00,NNW,340,3.3,6.4,42,0.00,,,0.00,WUHU216CR1000,2013-09-15 19:07:00,
2013-09-15 12:12:00,77.3,52.6,0.00,NNW,340,3.3,6.4,42,0.00,,,0.00,WUHU216CR1000,2013-09-15 19:12:00,
2013-09-15 12:17:00,78.2,53.2,0.00,ESE,121,3.5,9.9,42,0.00,,,0.00,WUHU216CR1000,2013-09-15 19:17:00,
2013-09-15 12:18:00,78.2,53.2,0.00,ESE,121,3.5,9.9,42,0.00,,,0.00,WUHU216CR1000,2013-09-15 19:18:00,
2013-09-15 12:23:00,78.2,53.2,0.00,ESE,121,3.5,9.9,42,0.00,,,0.00,WUHU216CR1000,2013-09-15 19:23:00,
2013-09-15 12:28:00,78.2,53.2,0.00,ESE,121,3.5,9.9,42,0.00,,,0.00,WUHU216CR1000,2013-09-15 19:28:00,
2013-09-15 12:33:00,78.7,55.0,0.00,WSW,243,9.0,17.1,44,0.00,,,0.00,WUHU216CR1000,2013-09-15 19:33:00,
2013-09-15 12:38:00,78.7,55.0,0.00,WSW,243,9.0,17.1,44,0.00,,,0.00,WUHU216CR1000,2013-09-15 19:38:00,
2013-09-15 12:43:00,78.7,55.0,0.00,WSW,243,9.0,17.1,44,0.00,,,0.00,WUHU216CR1000,2013-09-15 19:43:00,
2013-09-15 12:48:00,77.6,55.0,0.00,WSW,247,10.9,18.9,46,0.00,,,0.00,WUHU216CR1000,2013-09-15 19:48:00,
2013-09-15 12:53:00,77.6,55.0,0.00,WSW,247,10.9,18.9,46,0.00,,,0.00,WUHU216CR1000,2013-09-15 19:53:00,
2013-09-15 12:58:00,77.6,55.0,0.00,WSW,247,10.9,18.9,46,0.00,,,0.00,WUHU216CR1000,2013-09-15 19:58:00,
2013-09-15 13:03:00,77.8,55.1,0.00,WSW,246,9.0,18.9,45,0.00,,,0.00,WUHU216CR1000,2013-09-15 20:03:00,
2013-09-15 13:08:00,77.8,55.1,0.00,WSW,246,9.0,17.1,45,0.00,,,0.00,WUHU216CR1000,2013-09-15 20:08:00,
2013-09-15 13:13:00,77.8,55.1,0.00,WSW,246,9.0,17.1,45,0.00,,,0.00,WUHU216CR1000,2013-09-15 20:13:00,
2013-09-15 13:18:00,77.5,54.8,0.00,WSW,237,9.4,17.1,45,0.00,,,0.00,WUHU216CR1000,2013-09-15 20:18:00,
2013-09-15 13:23:00,77.5,54.8,0.00,WSW,237,9.4,17.1,45,0.00,,,0.00,WUHU216CR1000,2013-09-15 20:23:00,
2013-09-15 13:28:00,77.5,54.8,0.00,WSW,237,9.4,17.1,45,0.00,,,0.00,WUHU216CR1000,2013-09-15 20:28:00,
2013-09-15 13:33:00,78.2,54.7,0.00,WSW,244,10.6,17.1,44,0.00,,,0.00,WUHU216CR1000,2013-09-15 20:33:00,
2013-09-15 13:38:00,78.2,54.7,0.00,WSW,244,10.6,17.1,44,0.00,,,0.00,WUHU216CR1000,2013-09-15 20:38:00,
2013-09-15 13:43:00,78.2,54.7,0.00,WSW,244,10.6,17.1,44,0.00,,,0.00,WUHU216CR1000,2013-09-15 20:43:00,
2013-09-15 13:48:00,78.7,54.5,0.00,WSW,243,10.8,18.9,43,0.00,,,0.00,WUHU216CR1000,2013-09-15 20:48:00,
2013-09-15 13:53:00,78.7,54.5,0.00,WSW,243,10.8,18.9,43,0.00,,,0.00,WUHU216CR1000,2013-09-15 20:53:00,
2013-09-15 13:58:00,78.7,54.5,0.00,WSW,243,10.8,18.9,43,0.00,,,0.00,WUHU216CR1000,2013-09-15 20:58:00,
2013-09-15 14:03:00,78.7,54.4,0.00,WSW,249,10.2,18.9,43,0.00,,,0.00,WUHU216CR1000,2013-09-15 21:03:00,
2013-09-15 14:08:00,78.7,54.4,0.00,WSW,249,10.2,18.9,43,0.00,,,0.00,WUHU216CR1000,2013-09-15 21:08:00,
2013-09-15 14:13:00,78.7,54.4,0.00,WSW,249,10.2,18.9,43,0.00,,,0.00,WUHU216CR1000,2013-09-15 21:13:00,
2013-09-15 14:18:00,78.6,54.7,0.00,WSW,243,10.2,18.9,44,0.00,,,0.00,WUHU216CR1000,2013-09-15 21:18:00,
2013-09-15 14:23:00,78.6,54.7,0.00,WSW,243,10.2,18.9,44,0.00,,,0.00,WUHU216CR1000,2013-09-15 21:23:00,
2013-09-15 14:28:00,78.6,54.7,0.00,WSW,243,10.2,18.9,44,0.00,,,0.00,WUHU216CR1000,2013-09-15 21:28:00,
2013-09-15 14:33:00,78.4,54.8,0.00,WSW,248,9.9,18.9,44,0.00,,,0.00,WUHU216CR1000,2013-09-15 21:33:00,
2013-09-15 14:38:00,78.4,54.8,0.00,WSW,248,9.9,18.9,44,0.00,,,0.00,WUHU216CR1000,2013-09-15 21:38:00,
2013-09-15 14:43:00,78.4,54.8,0.00,WSW,248,9.9,18.9,44,0.00,,,0.00,WUHU216CR1000,2013-09-15 21:43:00,
2013-09-15 14:48:00,77.1,55.0,0.00,WSW,240,12.1,20.7,46,0.00,,,0.00,WUHU216CR1000,2013-09-15 21:48:00,
2013-09-15 14:53:00,77.1,55.0,0.00,WSW,240,12.1,20.7,46,0.00,,,0.00,WUHU216CR1000,2013-09-15 21:53:00,
2013-09-15 14:58:00,77.1,55.0,0.00,WSW,240,12.1,20.7,46,0.00,,,0.00,WUHU216CR1000,2013-09-15 21:58:00,
2013-09-15 15:03:00,77.2,54.9,0.00,WSW,251,10.5,20.7,46,0.00,,,0.00,WUHU216CR1000,2013-09-15 22:03:00,
2013-09-15 15:08:00,77.2,54.9,0.00,WSW,251,10.5,20.7,46,0.00,,,0.00,WUHU216CR1000,2013-09-15 22:08:00,
2013-09-15 15:13:00,77.2,54.9,0.00,WSW,251,10.5,20.7,46,0.00,,,0.00,WUHU216CR1000,2013-09-15 22:13:00,
2013-09-15 15:18:00,76.8,54.8,0.00,WSW,248,11.9,20.7,47,0.00,,,0.00,WUHU216CR1000,2013-09-15 22:18:00,
2013-09-15 15:23:00,76.8,54.8,0.00,WSW,248,11.9,20.7,47,0.00,,,0.00,WUHU216CR1000,2013-09-15 22:23:00,
2013-09-15 15:28:00,76.8,54.8,0.00,WSW,248,11.9,20.7,47,0.00,,,0.00,WUHU216CR1000,2013-09-15 22:28:00,
2013-09-15 15:33:00,76.2,54.7,0.00,WSW,245,12.2,20.7,47,0.00,,,0.00,WUHU216CR1000,2013-09-15 22:33:00,
2013-09-15 15:38:00,76.2,54.7,0.00,WSW,245,12.2,18.9,47,0.00,,,0.00,WUHU216CR1000,2013-09-15 22:38:00,
2013-09-15 15:43:00,76.2,54.7,0.00,WSW,245,12.2,18.9,47,0.00,,,0.00,WUHU216CR1000,2013-09-15 22:43:00,
2013-09-15 15:48:00,75.8,54.9,0.00,WSW,250,11.3,18.9,48,0.00,,,0.00,WUHU216CR1000,2013-09-15 22:48:00,
2013-09-15 15:53:00,75.8,54.9,0.00,WSW,250,11.3,18.9,48,0.00,,,0.00,WUHU216CR1000,2013-09-15 22:53:00,
2013-09-15 15:58:00,75.8,54.9,0.00,WSW,250,11.3,18.9,48,0.00,,,0.00,WUHU216CR1000,2013-09-15 22:58:00,
2013-09-15 16:03:00,76.3,55.1,0.00,WSW,250,10.2,18.9,48,0.00,,,0.00,WUHU216CR1000,2013-09-15 23:03:00,
2013-09-15 16:08:00,76.3,55.1,0.00,WSW,250,10.2,18.9,48,0.00,,,0.00,WUHU216CR1000,2013-09-15 23:08:00,
2013-09-15 16:13:00,76.3,55.1,0.00,WSW,250,10.2,18.9,48,0.00,,,0.00,WUHU216CR1000,2013-09-15 23:13:00,
2013-09-15 16:18:00,76.1,55.3,0.00,WSW,252,9.3,20.7,49,0.00,,,0.00,WUHU216CR1000,2013-09-15 23:18:00,
2013-09-15 16:23:00,76.1,55.3,0.00,WSW,252,9.3,20.7,49,0.00,,,0.00,WUHU216CR1000,2013-09-15 23:23:00,
2013-09-15 16:28:00,76.1,55.3,0.00,WSW,252,9.3,20.7,49,0.00,,,0.00,WUHU216CR1000,2013-09-15 23:28:00,
2013-09-15 16:33:00,76.0,55.5,0.00,WSW,253,8.9,20.7,49,0.00,,,0.00,WUHU216CR1000,2013-09-15 23:33:00,
2013-09-15 16:38:00,76.0,55.5,0.00,WSW,253,8.9,18.9,49,0.00,,,0.00,WUHU216CR1000,2013-09-15 23:38:00,
2013-09-15 16:43:00,76.0,55.5,0.00,WSW,253,8.9,18.9,49,0.00,,,0.00,WUHU216CR1000,2013-09-15 23:43:00,
2013-09-15 16:48:00,75.3,55.6,0.00,WSW,253,9.7,18.9,50,0.00,,,0.00,WUHU216CR1000,2013-09-15 23:48:00,
2013-09-15 16:53:00,75.3,55.6,0.00,WSW,253,9.7,17.1,50,0.00,,,0.00,WUHU216CR1000,2013-09-15 23:53:00,
2013-09-15 16:58:00,75.3,55.6,0.00,WSW,253,9.7,17.1,50,0.00,,,0.00,WUHU216CR1000,2013-09-15 23:58:00,
2013-09-15 17:03:00,74.8,55.8,0.00,WSW,252,9.5,18.9,52,0.00,,,0.00,WUHU216CR1000,2013-09-16 00:03:00,
2013-09-15 17:08:00,74.8,55.8,0.00,WSW,252,9.5,18.9,52,0.00,,,0.00,WUHU216CR1000,2013-09-16 00:08:00,
2013-09-15 17:13:00,74.8,55.8,0.00,WSW,252,9.5,18.9,52,0.00,,,0.00,WUHU216CR1000,2013-09-16 00:13:00,
2013-09-15 17:18:00,74.7,56.0,0.00,WSW,249,9.0,18.9,52,0.00,,,0.00,WUHU216CR1000,2013-09-16 00:18:00,
2013-09-15 17:23:00,74.7,56.0,0.00,WSW,249,9.0,17.1,52,0.00,,,0.00,WUHU216CR1000,2013-09-16 00:23:00,
2013-09-15 17:28:00,74.7,56.0,0.00,WSW,249,9.0,17.1,52,0.00,,,0.00,WUHU216CR1000,2013-09-16 00:28:00,
2013-09-15 17:33:00,74.4,55.9,0.00,WSW,250,9.1,17.1,52,0.00,,,0.00,WUHU216CR1000,2013-09-16 00:33:00,
2013-09-15 17:38:00,74.4,55.9,0.00,WSW,250,9.1,17.1,52,0.00,,,0.00,WUHU216CR1000,2013-09-16 00:38:00,
2013-09-15 17:43:00,74.4,55.9,0.00,WSW,250,9.1,17.1,52,0.00,,,0.00,WUHU216CR1000,2013-09-16 00:43:00,
2013-09-15 17:48:00,73.9,56.0,0.00,WSW,252,8.8,18.9,54,0.00,,,0.00,WUHU216CR1000,2013-09-16 00:48:00,
2013-09-15 17:53:00,73.9,56.0,0.00,WSW,252,8.8,18.9,54,0.00,,,0.00,WUHU216CR1000,2013-09-16 00:53:00,
2013-09-15 17:58:00,73.9,56.0,0.00,WSW,252,8.8,18.9,54,0.00,,,0.00,WUHU216CR1000,2013-09-16 00:58:00,
2013-09-15 18:03:00,73.0,56.0,0.00,WSW,249,9.2,18.9,55,0.00,,,0.00,WUHU216CR1000,2013-09-16 01:03:00,
2013-09-15 18:08:00,73.0,56.0,0.00,WSW,249,9.2,17.1,55,0.00,,,0.00,WUHU216CR1000,2013-09-16 01:08:00,
2013-09-15 18:13:00,73.0,56.0,0.00,WSW,249,9.2,17.1,55,0.00,,,0.00,WUHU216CR1000,2013-09-16 01:13:00,
2013-09-15 18:18:00,72.0,56.2,0.00,WSW,250,8.3,17.1,58,0.00,,,0.00,WUHU216CR1000,2013-09-16 01:18:00,
2013-09-15 18:23:00,72.0,56.2,0.00,WSW,250,8.3,15.3,58,0.00,,,0.00,WUHU216CR1000,2013-09-16 01:23:00,
2013-09-15 18:28:00,72.0,56.2,0.00,WSW,250,8.3,15.3,58,0.00,,,0.00,WUHU216CR1000,2013-09-16 01:28:00,
2013-09-15 18:33:00,71.2,56.4,0.00,WSW,249,7.2,15.3,59,0.00,,,0.00,WUHU216CR1000,2013-09-16 01:33:00,
2013-09-15 18:38:00,71.2,56.4,0.00,WSW,249,7.2,11.7,59,0.00,,,0.00,WUHU216CR1000,2013-09-16 01:38:00,
2013-09-15 18:43:00,71.2,56.4,0.00,WSW,249,7.2,11.7,59,0.00,,,0.00,WUHU216CR1000,2013-09-16 01:43:00,
2013-09-15 18:48:00,70.5,56.5,0.00,WSW,252,7.5,15.3,61,0.00,,,0.00,WUHU216CR1000,2013-09-16 01:48:00,
2013-09-15 18:53:00,70.5,56.5,0.00,WSW,252,7.5,15.3,61,0.00,,,0.00,WUHU216CR1000,2013-09-16 01:53:00,
2013-09-15 18:58:00,70.5,56.5,0.00,WSW,252,7.5,15.3,61,0.00,,,0.00,WUHU216CR1000,2013-09-16 01:58:00,
2013-09-15 19:03:00,69.0,56.7,0.00,WSW,248,7.2,15.3,65,0.00,,,0.00,WUHU216CR1000,2013-09-16 02:03:00,
2013-09-15 19:08:00,69.0,56.7,0.00,WSW,248,7.2,13.5,65,0.00,,,0.00,WUHU216CR1000,2013-09-16 02:08:00,
2013-09-15 19:13:00,69.0,56.7,0.00,WSW,248,7.2,13.5,65,0.00,,,0.00,WUHU216CR1000,2013-09-16 02:13:00,
2013-09-15 19:18:00,67.8,56.8,0.00,WSW,252,7.1,15.3,68,0.00,,,0.00,WUHU216CR1000,2013-09-16 02:18:00,
2013-09-15 19:23:00,67.8,56.8,0.00,WSW,252,7.1,15.3,68,0.00,,,0.00,WUHU216CR1000,2013-09-16 02:23:00,
2013-09-15 19:28:00,67.8,56.8,0.00,WSW,252,7.1,15.3,68,0.00,,,0.00,WUHU216CR1000,2013-09-16 02:28:00,
2013-09-15 19:33:00,67.1,56.8,0.00,WSW,248,7.7,15.3,70,0.00,,,0.00,WUHU216CR1000,2013-09-16 02:33:00,
2013-09-15 19:38:00,67.1,56.8,0.00,WSW,248,7.7,13.5,70,0.00,,,0.00,WUHU216CR1000,2013-09-16 02:38:00,
2013-09-15 19:43:00,67.1,56.8,0.00,WSW,248,7.7,13.5,70,0.00,,,0.00,WUHU216CR1000,2013-09-16 02:43:00,
2013-09-15 19:48:00,66.7,56.9,0.00,WSW,253,7.0,13.5,71,0.00,,,0.00,WUHU216CR1000,2013-09-16 02:48:00,
2013-09-15 19:53:00,66.7,56.9,0.00,WSW,253,7.0,11.7,71,0.00,,,0.00,WUHU216CR1000,2013-09-16 02:53:00,
2013-09-15 19:58:00,66.7,56.9,0.00,WSW,253,7.0,11.7,71,0.00,,,0.00,WUHU216CR1000,2013-09-16 02:58:00,
2013-09-15 20:03:00,66.2,56.9,0.00,West,279,3.8,11.7,72,0.00,,,0.00,WUHU216CR1000,2013-09-16 03:03:00,
2013-09-15 20:08:00,66.2,56.9,0.00,West,279,3.8,9.9,72,0.00,,,0.00,WUHU216CR1000,2013-09-16 03:08:00,
2013-09-15 20:13:00,66.2,56.9,0.00,West,279,3.8,9.9,72,0.00,,,0.00,WUHU216CR1000,2013-09-16 03:13:00,
2013-09-15 20:18:00,65.5,56.9,0.00,West,268,3.5,9.9,74,0.00,,,0.00,WUHU216CR1000,2013-09-16 03:18:00,
2013-09-15 20:23:00,65.5,56.9,0.00,West,268,3.5,8.2,74,0.00,,,0.00,WUHU216CR1000,2013-09-16 03:23:00,
2013-09-15 20:28:00,65.5,56.9,0.00,West,268,3.5,8.2,74,0.00,,,0.00,WUHU216CR1000,2013-09-16 03:28:00,
2013-09-15 20:33:00,64.7,56.5,0.00,West,273,2.6,8.2,75,0.00,,,0.00,WUHU216CR1000,2013-09-16 03:33:00,
2013-09-15 20:38:00,64.7,56.5,0.00,West,273,2.6,6.4,75,0.00,,,0.00,WUHU216CR1000,2013-09-16 03:38:00,
2013-09-15 20:43:00,64.7,56.5,0.00,West,273,2.6,6.4,75,0.00,,,0.00,WUHU216CR1000,2013-09-16 03:43:00,
2013-09-15 20:48:00,64.5,56.8,0.00,West,264,3.8,8.2,76,0.00,,,0.00,WUHU216CR1000,2013-09-16 03:48:00,
2013-09-15 20:53:00,64.5,56.8,0.00,West,264,3.8,8.2,76,0.00,,,0.00,WUHU216CR1000,2013-09-16 03:53:00,
2013-09-15 20:58:00,64.5,56.8,0.00,West,264,3.8,8.2,76,0.00,,,0.00,WUHU216CR1000,2013-09-16 03:58:00,
2013-09-15 21:01:00,64.5,56.8,0.00,West,264,3.8,8.2,76,0.00,,,0.00,WUHU216CR1000,2013-09-16 04:01:00,
2013-09-15 21:06:00,63.9,56.7,0.00,WNW,284,2.9,9.9,78,0.00,,,0.00,WUHU216CR1000,2013-09-16 04:06:00,
2013-09-15 21:11:00,63.9,56.7,0.00,WNW,284,2.9,9.9,78,0.00,,,0.00,WUHU216CR1000,2013-09-16 04:11:00,
2013-09-15 21:16:00,62.8,57.2,0.00,West,259,4.9,11.7,82,0.00,,,0.00,WUHU216CR1000,2013-09-16 04:16:00,
2013-09-15 21:21:00,62.8,57.2,0.00,West,259,4.9,11.7,82,0.00,,,0.00,WUHU216CR1000,2013-09-16 04:21:00,
2013-09-15 21:26:00,62.8,57.2,0.00,West,259,4.9,11.7,82,0.00,,,0.00,WUHU216CR1000,2013-09-16 04:26:00,
2013-09-15 21:31:00,62.7,57.3,0.00,WSW,244,5.4,11.7,83,0.00,,,0.00,WUHU216CR1000,2013-09-16 04:31:00,
2013-09-15 21:36:00,62.7,57.3,0.00,WSW,244,5.4,9.9,83,0.00,,,0.00,WUHU216CR1000,2013-09-16 04:36:00,
2013-09-15 21:41:00,62.7,57.3,0.00,WSW,244,5.4,9.9,83,0.00,,,0.00,WUHU216CR1000,2013-09-16 04:41:00,
2013-09-15 21:46:00,61.9,57.5,0.00,WSW,256,4.9,9.9,85,0.00,,,0.00,WUHU216CR1000,2013-09-16 04:46:00,
2013-09-15 21:51:00,61.9,57.5,0.00,WSW,256,4.9,9.9,85,0.00,,,0.00,WUHU216CR1000,2013-09-16 04:51:00,
2013-09-15 21:56:00,61.9,57.5,0.00,WSW,256,4.9,9.9,85,0.00,,,0.00,WUHU216CR1000,2013-09-16 04:56:00,
2013-09-15 22:01:00,61.4,57.0,0.00,WSW,256,1.5,9.9,86,0.00,,,0.00,WUHU216CR1000,2013-09-16 05:01:00,
2013-09-15 22:06:00,61.4,57.0,0.00,WSW,256,1.5,6.4,86,0.00,,,0.00,WUHU216CR1000,2013-09-16 05:06:00,
2013-09-15 22:11:00,61.4,57.0,0.00,WSW,256,1.5,6.4,86,0.00,,,0.00,WUHU216CR1000,2013-09-16 05:11:00,
2013-09-15 22:16:00,61.3,57.6,0.00,SW,231,4.9,9.9,88,0.00,,,0.00,WUHU216CR1000,2013-09-16 05:16:00,
2013-09-15 22:21:00,61.3,57.6,0.00,SW,231,4.9,9.9,88,0.00,,,0.00,WUHU216CR1000,2013-09-16 05:21:00,
2013-09-15 22:26:00,61.3,57.6,0.00,SW,231,4.9,9.9,88,0.00,,,0.00,WUHU216CR1000,2013-09-16 05:26:00,
2013-09-15 22:31:00,60.9,57.3,0.00,South,189,1.3,9.9,88,0.00,,,0.00,WUHU216CR1000,2013-09-16 05:31:00,
2013-09-15 22:36:00,60.9,57.3,0.00,South,189,1.3,4.6,88,0.00,,,0.00,WUHU216CR1000,2013-09-16 05:36:00,
2013-09-15 22:41:00,60.9,57.3,0.00,South,189,1.3,4.6,88,0.00,,,0.00,WUHU216CR1000,2013-09-16 05:41:00,
2013-09-15 22:46:00,59.7,56.2,0.00,WSW,252,0.4,4.6,88,0.00,,,0.00,WUHU216CR1000,2013-09-16 05:46:00,
2013-09-15 22:51:00,59.7,56.2,0.00,WSW,252,0.4,2.8,88,0.00,,,0.00,WUHU216CR1000,2013-09-16 05:51:00,
2013-09-15 22:56:00,59.7,56.2,0.00,WSW,252,0.4,2.8,88,0.00,,,0.00,WUHU216CR1000,2013-09-16 05:56:00,
2013-09-15 23:01:00,58.5,55.5,0.00,WSW,241,0.6,4.6,90,0.00,,,0.00,WUHU216CR1000,2013-09-16 06:01:00,
2013-09-15 23:06:00,58.5,55.5,0.00,WSW,241,0.6,4.6,90,0.00,,,0.00,WUHU216CR1000,2013-09-16 06:06:00,
2013-09-15 23:11:00,58.5,55.5,0.00,WSW,241,0.6,4.6,90,0.00,,,0.00,WUHU216CR1000,2013-09-16 06:11:00,
2013-09-15 23:16:00,58.5,55.5,0.00,WSW,241,0.6,4.6,90,0.00,,,0.00,WUHU216CR1000,2013-09-16 06:16:00,
2013-09-15 23:21:00,58.1,55.3,0.00,West,261,1.4,4.6,90,0.00,,,0.00,WUHU216CR1000,2013-09-16 06:21:00,
2013-09-15 23:26:00,58.1,55.3,0.00,West,261,1.4,4.6,90,0.00,,,0.00,WUHU216CR1000,2013-09-16 06:26:00,
2013-09-15 23:31:00,58.1,55.3,0.00,West,261,1.4,4.6,90,0.00,,,0.00,WUHU216CR1000,2013-09-16 06:31:00,
2013-09-15 23:36:00,59.3,56.3,0.00,West,266,2.3,6.4,90,0.00,,,0.00,WUHU216CR1000,2013-09-16 06:36:00,
2013-09-15 23:41:00,59.3,56.3,0.00,West,266,2.3,6.4,90,0.00,,,0.00,WUHU216CR1000,2013-09-16 06:41:00,
2013-09-15 23:46:00,59.3,56.3,0.00,West,266,2.3,6.4,90,0.00,,,0.00,WUHU216CR1000,2013-09-16 06:46:00,
2013-09-15 23:51:00,60.0,56.3,0.00,WSW,256,2.1,6.4,88,0.00,,,0.00,WUHU216CR1000,2013-09-16 06:51:00,
2013-09-15 23:56:00,60.0,56.3,0.00,WSW,256,2.1,4.6,88,0.00,,,0.00,WUHU216CR1000,2013-09-16 06:56:00,